[[{"header":{"parameterUnit":"m.s-1","parameterCategory":1,"la1":30.2991,"la2":30.254,"lo1":-89.0895,"lo2":-89.0444,"dy":0.0017,"dx":0.0017,"nx":28,"ny":28,"refTime":"2024-06-14T03:00:00:Z","depth":0,"parameterNumber":2,"parameterNumberName":"U-component_of_WINDS"},"data":[0,0,0,0,0,0,0,0,0,0,0,0,0,0,0,0,0,0,0,0,0,0,0,0,0,0,0,0,0,0,0,0,0,0,0,0,0,0,0,0,0,0,0,0,0,0,0,0,0,0,0,0,0,0,0,0,0,0,-1.5383,-1.5382,0,-1.5281,-1.528,-1.5279,-1.5267,-1.5268,-1.5269,-1.527,-1.5165,-1.5161,-1.5158,0,0,0,0,0,0,0,0,0,0,0,0,0,-1.5568,-1.5565,-1.5383,-1.5382,-1.538,-1.5281,-1.528,-1.5278,-1.5267,-1.5268,-1.5269,-1.5271,-1.5166,-1.5162,-1.5157,0,0,0,0,0,0,0,0,0,0,0,0,0,-1.5479,-1.5564,-1.5383,-1.5363,-1.536,-1.5282,-1.528,-1.5278,-1.5267,-1.5268,-1.527,-1.5271,-1.5168,-1.5162,-1.5157,-1.5091,0,0,-1.5139,-1.5137,0,0,0,0,0,0,0,0,-1.5484,-1.5472,-1.5367,-1.5364,-1.5361,-1.5288,-1.5307,-1.5215,-1.5266,-1.5302,-1.527,-1.5272,-1.5205,-1.5196,-1.5174,-1.5086,-1.5082,-1.5139,-1.5136,-1.5133,-1.5132,0,0,0,0,0,0,0,-1.549,-1.5477,-1.5343,-1.5366,-1.5362,-1.5359,-1.5348,-1.5289,-1.5246,-1.5299,-1.5298,-1.5286,-1.5203,-1.5179,-1.5171,-1.508,-1.5139,-1.5134,-1.5131,-1.5128,-1.4937,-1.4935,0,0,0,0,0,0,-1.55,-1.5482,-1.5346,-1.534,-1.5428,-1.5354,-1.5342,-1.531,-1.5247,-1.5239,-1.5285,-1.5286,-1.5188,-1.5178,-1.5167,-1.5088,-1.5133,-1.5128,-1.5125,-1.4939,-1.4937,-1.4935,0,0,0,0,0,0,-1.5504,-1.5488,-1.535,-1.541,-1.5393,-1.535,-1.5314,-1.5307,-1.5283,-1.5236,-1.5228,-1.5268,-1.5189,-1.5175,-1.5111,-1.5084,-1.5125,-1.512,-1.4941,-1.4938,-1.4936,-1.4929,0,0,0,0,0,0,-1.551,-1.549,-1.5464,-1.541,-1.5389,-1.5295,-1.5312,-1.5304,-1.5274,-1.5274,-1.5218,-1.521,-1.5189,-1.5119,-1.5105,-1.5077,-1.5116,-1.4943,-1.494,-1.4937,-1.4931,-1.4926,-1.4922,0,0,0,0,0,-1.5516,-1.5466,-1.5463,-1.5447,-1.5357,-1.5293,-1.5282,-1.5258,-1.5271,-1.5246,-1.5216,-1.5212,-1.509,-1.5113,-1.5097,-1.5067,-1.4945,-1.4941,-1.4937,-1.4933,-1.4927,-1.4922,0,0,0,0,0,0,-1.5517,-1.5458,-1.5454,-1.5384,-1.5344,-1.5292,-1.5258,-1.5252,-1.5207,-1.5209,-1.5182,-1.517,-1.5107,-1.508,-1.5107,-1.5002,-1.5018,-1.5011,-1.5021,-1.5015,-1.5011,-1.5019,-1.5111,0,0,0,0,0,-1.5509,-1.5463,-1.5414,-1.5357,-1.5337,-1.5301,-1.5273,-1.5258,-1.5215,-1.5198,-1.5163,-1.5122,-1.5074,-1.5043,-1.4996,-1.4928,-1.4916,-1.4899,-1.4895,-1.4891,-1.4885,-1.4849,-1.4842,-1.4922,-1.4922,-1.4922,0,0,-1.5492,-1.5454,-1.5426,-1.5356,-1.5323,-1.5276,-1.5287,-1.5236,-1.5201,-1.519,-1.5128,-1.5101,-1.5053,-1.4987,-1.4956,-1.4963,-1.4861,-1.4886,-1.4884,-1.488,-1.4844,-1.4837,-1.483,-1.492,-1.492,-1.492,0,0,-1.5437,-1.5403,-1.5353,-1.532,-1.5271,-1.5248,-1.5236,-1.5184,-1.5167,-1.5104,-1.5095,-1.5054,-1.4972,-1.4938,-1.4911,-1.4846,-1.4842,-1.4832,-1.4808,-1.4773,-1.4767,-1.4761,-1.4739,-1.4732,-1.4826,-1.4826,-1.4826,0,-1.5422,-1.5351,-1.5328,-1.5278,-1.5248,-1.5237,-1.5187,-1.5156,-1.5094,-1.5074,-1.5082,-1.4981,-1.4948,-1.4874,-1.4859,-1.4836,-1.4823,-1.4838,-1.4769,-1.4763,-1.4758,-1.4737,-1.4729,-1.4825,-1.4825,-1.4825,-1.4825,0,-1.5335,-1.5286,-1.5252,-1.5193,-1.5159,-1.5109,-1.508,-1.5048,-1.5038,-1.5014,-1.4951,-1.4911,-1.4858,-1.4839,-1.4827,-1.4765,-1.4771,-1.4775,-1.4791,-1.475,-1.473,-1.4721,-1.4824,-1.4824,-1.4825,-1.4825,0,0,-1.5276,-1.5207,-1.5195,-1.5169,-1.5115,-1.5077,-1.5027,-1.4976,-1.495,-1.4908,-1.4866,-1.4799,-1.4803,-1.4771,-1.4756,-1.4725,-1.4679,-1.4733,-1.4732,-1.4726,-1.461,-1.4607,-1.4598,-1.4676,-1.4674,-1.4673,-1.4614,0,-1.5216,-1.5127,-1.5107,-1.5031,-1.4987,-1.4977,-1.4934,-1.4896,-1.4874,-1.4833,-1.4808,-1.4761,-1.4769,-1.475,-1.4719,-1.4691,-1.4655,-1.4695,-1.4638,-1.4636,-1.4651,-1.4588,-1.4585,-1.4531,-1.4606,-1.4604,-1.4603,0,-1.5133,-1.5091,-1.5011,-1.4965,-1.4946,-1.4907,-1.4859,-1.482,-1.4778,-1.4764,-1.473,-1.4719,-1.4668,-1.4688,-1.4618,-1.4645,-1.4621,-1.4604,-1.4601,-1.4595,-1.4618,-1.4581,-1.4513,-1.4505,-1.4591,-1.4592,-1.4593,0,-1.51,-1.5023,-1.4966,-1.4944,-1.4888,-1.4862,-1.4837,-1.4797,-1.4768,-1.4726,-1.4707,-1.466,-1.4634,-1.4598,-1.4574,-1.459,-1.4507,-1.4524,-1.4495,-1.4496,-1.4478,-1.4479,-1.4406,-1.4461,-1.4461,-1.4461,-1.4461,0,-1.5035,-1.4987,-1.495,-1.4915,-1.4862,-1.4839,-1.4787,-1.4762,-1.4727,-1.4687,-1.4676,-1.4639,-1.461,-1.457,-1.4551,-1.4498,-1.4486,-1.4473,-1.4469,-1.4475,-1.4476,-1.4458,-1.4462,-1.4459,-1.4459,-1.446,-1.446,0,-1.4988,-1.4962,-1.4899,-1.4852,-1.484,-1.4802,-1.4763,-1.4729,-1.4707,-1.4657,-1.4644,-1.4609,-1.4561,-1.4535,-1.4474,-1.4462,-1.4402,-1.4399,-1.4417,-1.4415,-1.4388,-1.4391,-1.4301,-1.4288,-1.4351,-1.435,-1.435,0,-1.4949,-1.4912,-1.4862,-1.4835,-1.4811,-1.4767,-1.4738,-1.4715,-1.4685,-1.4636,-1.4608,-1.456,-1.452,-1.4445,-1.4414,-1.4368,-1.4365,-1.4336,-1.4358,-1.4366,-1.4366,-1.4369,-1.4366,-1.4333,-1.4332,-1.4332,-1.4331,0,-1.4882,-1.4872,-1.483,-1.4785,-1.4751,-1.4713,-1.4676,-1.4655,-1.4626,-1.4593,-1.4545,-1.4514,-1.4454,-1.4406,-1.4359,-1.4334,-1.4328,-1.4325,-1.4316,-1.4322,-1.4334,-1.4328,-1.4408,-1.4327,-1.4327,-1.4328,-1.4328,-1.4328,-1.4839,-1.4807,-1.4767,-1.4722,-1.4692,-1.4658,-1.4625,-1.4599,-1.4559,-1.4508,-1.4497,-1.4446,-1.4407,-1.4343,-1.4317,-1.4278,-1.4283,-1.427,-1.4266,-1.4264,-1.4264,-1.434,-1.4269,-1.4269,-1.4269,-1.4269,-1.4269,0,-1.4773,-1.4747,-1.4706,-1.4656,-1.4621,-1.4619,-1.4579,-1.455,-1.4505,-1.447,-1.4431,-1.4377,-1.4332,-1.4299,-1.4253,-1.4228,-1.4224,-1.4217,-1.4218,-1.4213,-1.4261,-1.4274,-1.422,-1.422,-1.422,-1.4221,-1.4221,-1.4221,-1.4734,-1.468,-1.4665,-1.4597,-1.4572,-1.4523,-1.45,-1.447,-1.4441,-1.4381,-1.4344,-1.4323,-1.4288,-1.424,-1.4199,-1.4191,-1.4175,-1.4168,-1.4159,-1.4204,-1.421,-1.4215,-1.4227,-1.4165,-1.4165,-1.4115,-1.4115,-1.4115]},{"header":{"parameterUnit":"m.s-1","parameterCategory":1,"la1":30.2991,"la2":30.254,"lo1":-89.0895,"lo2":-89.0444,"dy":0.0017,"dx":0.0017,"nx":28,"ny":28,"refTime":"2024-06-14T03:00:00:Z","depth":0,"parameterNumber":3,"parameterNumberName":"V-component_of_WINDS"},"data":[0,0,0,0,0,0,0,0,0,0,0,0,0,0,0,0,0,0,0,0,0,0,0,0,0,0,0,0,0,0,0,0,0,0,0,0,0,0,0,0,0,0,0,0,0,0,0,0,0,0,0,0,0,0,0,0,0,0,1.9781,1.9781,0,1.9741,1.9741,1.974,1.9785,1.9787,1.9789,1.979,1.9743,1.9741,1.9738,0,0,0,0,0,0,0,0,0,0,0,0,0,1.989,1.9888,1.9781,1.9781,1.978,1.9741,1.9741,1.974,1.9785,1.9787,1.9789,1.9791,1.9744,1.9741,1.9738,0,0,0,0,0,0,0,0,0,0,0,0,0,1.9846,1.9887,1.9781,1.9798,1.9799,1.9741,1.9741,1.974,1.9784,1.9787,1.979,1.9792,1.9745,1.9741,1.9737,1.9659,0,0,1.9724,1.9722,0,0,0,0,0,0,0,0,1.9848,1.9842,1.9796,1.9797,1.9798,1.9771,1.9762,1.9713,1.9784,1.979,1.979,1.9793,1.975,1.9746,1.9732,1.9657,1.9655,1.9724,1.9721,1.9719,1.9718,0,0,0,0,0,0,0,1.9851,1.9843,1.9765,1.9795,1.9796,1.9805,1.9802,1.9753,1.9756,1.9789,1.9793,1.9788,1.9751,1.9736,1.9732,1.9654,1.9724,1.972,1.9717,1.9716,1.951,1.9508,0,0,0,0,0,0,1.9853,1.9846,1.9766,1.9764,1.983,1.9801,1.9798,1.9777,1.9757,1.9756,1.9785,1.979,1.9742,1.9736,1.973,1.9635,1.9719,1.9715,1.9713,1.9513,1.951,1.9507,0,0,0,0,0,0,1.9855,1.9846,1.9768,1.9806,1.9797,1.9797,1.9773,1.9775,1.976,1.9754,1.9754,1.977,1.9744,1.9736,1.9676,1.9634,1.9713,1.971,1.9517,1.9512,1.9508,1.9446,0,0,0,0,0,0,1.9858,1.9846,1.9818,1.9805,1.9794,1.9716,1.9771,1.9772,1.9753,1.9759,1.9739,1.9738,1.9746,1.9682,1.9672,1.963,1.9706,1.952,1.9515,1.951,1.9451,1.944,1.943,0,0,0,0,0,1.9862,1.9801,1.9816,1.9806,1.9759,1.9714,1.9708,1.9719,1.975,1.972,1.9716,1.9739,1.9641,1.9676,1.9665,1.962,1.9523,1.9516,1.951,1.9456,1.9442,1.943,0,0,0,0,0,0,1.9807,1.98,1.9816,1.975,1.9733,1.9722,1.9685,1.9704,1.9676,1.9682,1.9695,1.969,1.9626,1.9618,1.9657,1.9543,1.9587,1.9578,1.955,1.9536,1.9526,1.9527,1.9703,0,0,0,0,0,1.9788,1.9754,1.9749,1.969,1.9681,1.9684,1.9665,1.9675,1.9657,1.9649,1.964,1.962,1.9584,1.956,1.9528,1.9452,1.9446,1.9415,1.9405,1.9396,1.9386,1.9343,1.9328,1.9485,1.9485,1.9485,0,0,1.9747,1.9739,1.9716,1.9679,1.9667,1.9628,1.9678,1.9636,1.9606,1.9642,1.9584,1.9578,1.9556,1.9487,1.9456,1.9477,1.9342,1.9387,1.938,1.9376,1.9334,1.9319,1.9306,1.9481,1.9482,1.9482,0,0,1.9651,1.9643,1.9593,1.958,1.9561,1.9564,1.9551,1.9538,1.9535,1.9478,1.9503,1.9468,1.9408,1.939,1.9373,1.9271,1.929,1.926,1.9202,1.9159,1.9147,1.9136,1.9096,1.9082,1.9252,1.9252,1.9252,0,1.9602,1.9547,1.9564,1.9519,1.9501,1.9534,1.9481,1.9467,1.9438,1.9423,1.9449,1.9373,1.936,1.9286,1.9261,1.9248,1.9232,1.9261,1.9148,1.9137,1.9126,1.9089,1.9074,1.9248,1.9248,1.9249,1.9249,0,1.9485,1.9447,1.9408,1.938,1.9358,1.931,1.9317,1.9292,1.9304,1.9304,1.9244,1.9231,1.9195,1.9179,1.919,1.9105,1.9119,1.9146,1.919,1.9107,1.9072,1.9058,1.9242,1.9244,1.9245,1.9246,0,0,1.9352,1.9335,1.932,1.9307,1.9288,1.9258,1.921,1.9177,1.9154,1.9133,1.9091,1.9039,1.9063,1.9044,1.9054,1.9017,1.8933,1.9048,1.9047,1.9024,1.8835,1.8812,1.8795,1.8947,1.8944,1.8942,1.8835,0,1.9254,1.9173,1.9186,1.9107,1.9069,1.91,1.9058,1.9041,1.904,1.9006,1.9004,1.8965,1.9003,1.8991,1.8956,1.895,1.8894,1.8959,1.8904,1.8902,1.8905,1.8777,1.8753,1.8653,1.8822,1.882,1.8818,0,1.9128,1.9103,1.902,1.9006,1.8991,1.8954,1.8923,1.8892,1.8872,1.8874,1.8852,1.8868,1.8818,1.8866,1.8795,1.8838,1.8817,1.8811,1.8808,1.88,1.8852,1.8762,1.8622,1.8605,1.8797,1.8799,1.88,0,1.9035,1.8981,1.8924,1.8912,1.8895,1.8868,1.8859,1.8843,1.8821,1.8794,1.8779,1.8747,1.8727,1.87,1.8706,1.8741,1.8632,1.8681,1.8629,1.8628,1.8602,1.8602,1.8452,1.8594,1.8594,1.8595,1.8595,0,1.8921,1.8868,1.8881,1.8845,1.8786,1.8802,1.8742,1.8737,1.8722,1.8684,1.871,1.8673,1.8685,1.8648,1.8653,1.8591,1.8584,1.8581,1.8582,1.8576,1.8576,1.856,1.8565,1.8591,1.8592,1.8592,1.8593,0,1.8806,1.8813,1.8752,1.8742,1.8738,1.8694,1.8684,1.865,1.8651,1.8602,1.8591,1.8592,1.855,1.8554,1.8507,1.851,1.8433,1.8444,1.8439,1.844,1.8386,1.839,1.8217,1.8193,1.8354,1.8353,1.8352,0,1.8731,1.8691,1.8677,1.8654,1.8644,1.8607,1.8586,1.8599,1.8575,1.855,1.8517,1.8478,1.8447,1.8378,1.8373,1.8336,1.8344,1.8286,1.8339,1.8334,1.8339,1.834,1.8334,1.8275,1.8273,1.8271,1.827,0,1.8597,1.8602,1.8571,1.854,1.8514,1.8491,1.8469,1.8449,1.846,1.8431,1.839,1.8366,1.8318,1.8277,1.8243,1.8232,1.8251,1.8254,1.824,1.8232,1.8229,1.8226,1.8407,1.8257,1.8259,1.826,1.826,1.8261,1.8497,1.8462,1.8446,1.841,1.8396,1.8375,1.8341,1.8338,1.8305,1.8267,1.8278,1.8229,1.821,1.8165,1.8151,1.8112,1.8132,1.8112,1.8106,1.81,1.8092,1.8239,1.8106,1.8106,1.8107,1.8107,1.8107,0,1.836,1.8352,1.8319,1.8289,1.826,1.8284,1.8262,1.8235,1.8193,1.8174,1.8143,1.8093,1.8054,1.8046,1.8008,1.7978,1.7986,1.7967,1.7968,1.7964,1.8077,1.8092,1.7961,1.7961,1.7961,1.7961,1.7962,1.7962,1.8286,1.8227,1.8231,1.8164,1.8156,1.811,1.8095,1.8075,1.8059,1.8004,1.7972,1.7968,1.7952,1.7913,1.7877,1.7876,1.7859,1.7836,1.7837,1.7942,1.7956,1.797,1.7984,1.7833,1.7833,1.7727,1.7726,1.7725]}]]